Location: Grange Rosano
(44.4500°N, 6.9667°E)
Time: 19:43:05
(UTC+00:00)

Genesis I - Pass Details

Date: 26 May 2022
Orbit: 463 x 544 km, 64.5° (Epoch: 01 July)

Event Time Altitude Azimuth Distance (km) Brightness Sun altitude
Rises 02:56:03 0° 324° (NW) 2,713 6.9 -9.2°
Reaches altitude 10° 02:58:17 10° 325° (NW) 1,812 6.1 -8.9°
Maximum altitude 03:02:22 87° 55° (NE) 542 3.3 -8.4°
Drops below altitude 10° 03:06:21 10° 145° (SE) 1,767 5.9 -7.8°
Sets 03:08:30 0° 145° (SE) 2,639 6.7 -7.5°
